| time (UTC) | temp F | wind direction | speed knots | gust knots | rain 1hr in | rain 24hr in | rain mn in | humidity % | barometer mb |
| 20260508234056 | 101 | 264 | 2.6 | 8.7 | 0.00 | 0.00 | 0.00 | 10 | 1004.2 |
| 20260508233555 | 101 | 273 | 1.7 | 12.2 | 0.00 | 0.00 | 0.00 | 10 | 1004.3 |
| 20260508233114 | 101 | 251 | 0.9 | 12.2 | 0.00 | 0.00 | 0.00 | 10 | 1004.4 |
| 20260508232554 | 101 | 212 | 3.5 | 12.2 | 0.00 | 0.00 | 0.00 | 10 | 1004.4 |
| 20260508232055 | 101 | 296 | 3.5 | 7.8 | 0.00 | 0.00 | 0.00 | 10 | 1004.5 |
| 20260508231556 | 101 | 222 | 1.7 | 7.0 | 0.00 | 0.00 | 0.00 | 9 | 1004.4 |
| 20260508231051 | 101 | 195 | 3.5 | 7.0 | 0.00 | 0.00 | 0.00 | 10 | 1004.5 |
| 20260508230551 | 100 | 303 | 0.9 | 10.4 | 0.00 | 0.00 | 0.00 | 10 | 1004.5 |
| 20260508230056 | 100 | 324 | 3.5 | 10.4 | 0.00 | 0.00 | 0.00 | 11 | 1004.7 |
| 20260508225549 | 100 | 273 | 3.5 | 8.7 | 0.00 | 0.00 | 0.00 | 10 | 1004.6 |
| 20260508225049 | 100 | 277 | 3.5 | 9.6 | 0.00 | 0.00 | 0.00 | 10 | 1004.8 |
| 20260508224605 | 100 | 202 | 3.5 | 9.6 | 0.00 | 0.00 | 0.00 | 11 | 1004.7 |
| 20260508224048 | 100 | 269 | 3.5 | 9.6 | 0.00 | 0.00 | 0.00 | 11 | 1004.8 |
| 20260508223548 | 100 | 297 | 5.2 | 8.7 | 0.00 | 0.00 | 0.00 | 11 | 1004.9 |
| 20260508223047 | 100 | 209 | 2.6 | 8.7 | 0.00 | 0.00 | 0.00 | 12 | 1005.0 |
| 20260508222546 | 100 | 235 | 3.5 | 7.8 | 0.00 | 0.00 | 0.00 | 11 | 1005.1 |
| 20260508222045 | 100 | 219 | 1.7 | 10.4 | 0.00 | 0.00 | 0.00 | 11 | 1005.2 |
| 20260508221545 | 100 | 299 | 3.5 | 10.4 | 0.00 | 0.00 | 0.00 | 11 | 1005.4 |
| 20260508221044 | 100 | 214 | 2.6 | 7.8 | 0.00 | 0.00 | 0.00 | 12 | 1005.2 |
| 20260508220542 | 99 | 214 | 1.7 | 12.2 | 0.00 | 0.00 | 0.00 | 12 | 1005.5 |
| 20260508220042 | 99 | 275 | 6.1 | 12.2 | 0.00 | 0.00 | 0.00 | 12 | 1005.7 |
| 20260508215540 | 99 | 259 | 4.3 | 10.4 | 0.00 | 0.00 | 0.00 | 12 | 1005.8 |
| 20260508215040 | 99 | 265 | 1.7 | 8.7 | 0.00 | 0.00 | 0.00 | 12 | 1005.8 |
| 20260508214539 | 99 | 244 | 2.6 | 7.0 | 0.00 | 0.00 | 0.00 | 14 | 1006.1 |
| 20260508214040 | 98 | 239 | 1.7 | 7.0 | 0.00 | 0.00 | 0.00 | 14 | 1006.0 |
| 20260508213540 | 97 | 327 | 0.9 | 12.2 | 0.00 | 0.00 | 0.00 | 14 | 1006.1 |
| 20260508213038 | 97 | 296 | 4.3 | 12.2 | 0.00 | 0.00 | 0.00 | 13 | 1006.3 |
| 20260508212533 | 97 | 259 | 4.3 | 11.3 | 0.00 | 0.00 | 0.00 | 14 | 1006.4 |
| 20260508212033 | 97 | 263 | 1.7 | 10.4 | 0.00 | 0.00 | 0.00 | 14 | 1006.5 |
| 20260508211537 | 97 | 274 | 4.3 | 10.4 | 0.00 | 0.00 | 0.00 | 14 | 1006.6 |
| 20260508211032 | 97 | 300 | 5.2 | 9.6 | 0.00 | 0.00 | 0.00 | 16 | 1006.7 |
| 20260508210530 | 97 | 297 | 6.1 | 8.7 | 0.00 | 0.00 | 0.00 | 15 | 1006.8 |
| 20260508210031 | 96 | 274 | 1.7 | 9.6 | 0.00 | 0.00 | 0.00 | 15 | 1006.8 |
| 20260508205528 | 96 | 275 | 4.3 | 9.6 | 0.00 | 0.00 | 0.00 | 15 | 1007.0 |
| 20260508205031 | 97 | 271 | 2.6 | 8.7 | 0.00 | 0.00 | 0.00 | 15 | 1007.0 |
| 20260508204527 | 96 | 236 | 2.6 | 8.7 | 0.00 | 0.00 | 0.00 | 16 | 1007.1 |
| 20260508204026 | 96 | 216 | 2.6 | 10.4 | 0.00 | 0.00 | 0.00 | 16 | 1007.2 |
| 20260508203525 | 96 | 282 | 3.5 | 10.4 | 0.00 | 0.00 | 0.00 | 15 | 1007.2 |
| 20260508203025 | 96 | 297 | 2.6 | 8.7 | 0.00 | 0.00 | 0.00 | 15 | 1007.3 |
| 20260508202525 | 96 | 286 | 1.7 | 7.0 | 0.00 | 0.00 | 0.00 | 15 | 1007.3 |
| 20260508202023 | 96 | 250 | 3.5 | 5.2 | 0.00 | 0.00 | 0.00 | 15 | 1007.5 |
| 20260508201523 | 96 | 305 | 2.6 | 7.0 | 0.00 | 0.00 | 0.00 | 15 | 1007.5 |
| 20260508201022 | 95 | 210 | 3.5 | 7.0 | 0.00 | 0.00 | 0.00 | 15 | 1007.6 |
| 20260508200522 | 95 | 224 | 2.6 | 7.0 | 0.00 | 0.00 | 0.00 | 15 | 1007.8 |
| 20260508200027 | 95 | 260 | 3.5 | 7.0 | 0.00 | 0.00 | 0.00 | 15 | 1007.8 |
| 20260508195520 | 96 | 216 | 2.6 | 7.8 | 0.00 | 0.00 | 0.00 | 15 | 1007.8 |
| 20260508195022 | 96 | 300 | 1.7 | 6.1 | 0.00 | 0.00 | 0.00 | 15 | 1007.9 |
| 20260508194519 | 96 | 233 | 1.7 | 6.1 | 0.00 | 0.00 | 0.00 | 15 | 1007.9 |
| 20260508194019 | 96 | 159 | 2.6 | 6.1 | 0.00 | 0.00 | 0.00 | 15 | 1007.9 |
| 20260508193517 | 95 | 168 | 1.7 | 6.1 | 0.00 | 0.00 | 0.00 | 15 | 1008.0 |
| 20260508193016 | 95 | 277 | 0.9 | 7.0 | 0.00 | 0.00 | 0.00 | 17 | 1008.1 |
| 20260508192514 | 94 | 223 | 1.7 | 7.0 | 0.00 | 0.00 | 0.00 | 17 | 1008.1 |
| 20260508192013 | 94 | 184 | 0.9 | 4.3 | 0.00 | 0.00 | 0.00 | 17 | 1008.3 |
| 20260508191514 | 94 | 188 | 1.7 | 4.3 | 0.00 | 0.00 | 0.00 | 16 | 1008.4 |
| 20260508191011 | 94 | 173 | 0.9 | 5.2 | 0.00 | 0.00 | 0.00 | 16 | 1008.5 |
| 20260508190510 | 94 | 184 | 0.9 | 6.1 | 0.00 | 0.00 | 0.00 | 18 | 1008.5 |
| 20260508190008 | 94 | 139 | 0.9 | 4.3 | 0.00 | 0.00 | 0.00 | 17 | 1008.7 |
| 20260508185507 | 93 | 175 | 0.9 | 4.3 | 0.00 | 0.00 | 0.00 | 17 | 1008.7 |
| 20260508185006 | 93 | 200 | 0.9 | 4.3 | 0.00 | 0.00 | 0.00 | 17 | 1008.8 |
| 20260508184507 | 93 | 196 | 0.0 | 3.5 | 0.00 | 0.00 | 0.00 | 18 | 1008.8 |
| 20260508184004 | 92 | 186 | 0.9 | 4.3 | 0.00 | 0.00 | 0.00 | 16 | 1008.9 |
| 20260508183502 | 91 | 114 | 1.7 | 4.3 | 0.00 | 0.00 | 0.00 | 17 | 1008.9 |
| 20260508183001 | 91 | 161 | 0.9 | 3.5 | 0.00 | 0.00 | 0.00 | 17 | 1009.0 |
| 20260508182600 | 91 | 129 | 0.9 | 2.6 | 0.00 | 0.00 | 0.00 | 17 | 1009.1 |
| 20260508182100 | 91 | 96 | 0.9 | 3.5 | 0.00 | 0.00 | 0.00 | 17 | 1009.2 |
| 20260508181557 | 91 | 102 | 0.9 | 3.5 | 0.00 | 0.00 | 0.00 | 18 | 1009.2 |
| 20260508181057 | 90 | 126 | 0.0 | 3.5 | 0.00 | 0.00 | 0.00 | 16 | 1009.3 |
| 20260508180554 | 90 | 161 | 0.9 | 3.5 | 0.00 | 0.00 | 0.00 | 17 | 1009.4 |
| 20260508180053 | 89 | 348 | 0.0 | 2.6 | 0.00 | 0.00 | 0.00 | 17 | 1009.4 |
| 20260508175552 | 89 | 153 | 0.9 | 4.3 | 0.00 | 0.00 | 0.00 | 17 | 1009.5 |
| 20260508175050 | 88 | 155 | 0.0 | 4.3 | 0.00 | 0.00 | 0.00 | 18 | 1009.5 |
| 20260508174603 | 88 | 67 | 0.0 | 4.3 | 0.00 | 0.00 | 0.00 | 17 | 1009.6 |
| 20260508174047 | 88 | 292 | 0.0 | 1.7 | 0.00 | 0.00 | 0.00 | 17 | 1009.6 |
| 20260508173546 | 88 | 178 | 0.0 | 1.7 | 0.00 | 0.00 | 0.00 | 19 | 1009.6 |
| 20260508173047 | 87 | 138 | 0.0 | 1.7 | 0.00 | 0.00 | 0.00 | 18 | 1009.6 |
| 20260508172543 | 87 | 200 | 0.0 | 1.7 | 0.00 | 0.00 | 0.00 | 18 | 1009.6 |
| 20260508172042 | 86 | 94 | 0.0 | 3.5 | 0.00 | 0.00 | 0.00 | 18 | 1009.7 |
| 20260508171541 | 86 | 114 | 0.9 | 3.5 | 0.00 | 0.00 | 0.00 | 18 | 1009.8 |
| 20260508171040 | 86 | 126 | 0.0 | 1.7 | 0.00 | 0.00 | 0.00 | 17 | 1009.8 |
| 20260508170540 | 85 | 105 | 0.0 | 2.6 | 0.00 | 0.00 | 0.00 | 16 | 1009.8 |
| 20260508170040 | 0 | 0.0 | 0.0 | 0.00 | 0.00 | 0.00 | 1009.8 | ||
| 20260508121529 | 71 | 53 | 0.9 | 3.5 | 0.00 | 0.00 | 0.00 | 21 | 1008.3 |
| 20260508121027 | 71 | 86 | 0.0 | 4.3 | 0.00 | 0.00 | 0.00 | 21 | 1008.3 |
| 20260508120526 | 72 | 50 | 2.6 | 4.3 | 0.00 | 0.00 | 0.00 | 21 | 1008.3 |
| 20260508120025 | 73 | 50 | 0.0 | 2.6 | 0.00 | 0.00 | 0.00 | 21 | 1008.3 |
| 20260508115524 | 74 | 45 | 0.0 | 1.7 | 0.00 | 0.00 | 0.00 | 21 | 1008.3 |
| 20260508115021 | 74 | 39 | 0.0 | 3.5 | 0.00 | 0.00 | 0.00 | 24 | 1008.2 |
| 20260508114525 | 75 | 347 | 0.9 | 3.5 | 0.00 | 0.00 | 0.00 | 25 | 1008.1 |
| 20260508114021 | 74 | 305 | 0.9 | 3.5 | 0.00 | 0.00 | 0.00 | 25 | 1008.0 |
| 20260508113520 | 74 | 232 | 0.9 | 3.5 | 0.00 | 0.00 | 0.00 | 25 | 1007.9 |
| 20260508113021 | 74 | 265 | 0.0 | 3.5 | 0.00 | 0.00 | 0.00 | 25 | 1007.9 |
| 20260508112519 | 74 | 267 | 0.9 | 2.6 | 0.00 | 0.00 | 0.00 | 24 | 1008.0 |
| 20260508112019 | 75 | 275 | 0.9 | 2.6 | 0.00 | 0.00 | 0.00 | 24 | 1007.9 |
| 20260508111520 | 75 | 267 | 0.9 | 2.6 | 0.00 | 0.00 | 0.00 | 23 | 1008.0 |
| 20260508111020 | 75 | 282 | 0.0 | 2.6 | 0.00 | 0.00 | 0.00 | 23 | 1007.9 |
| 20260508110518 | 75 | 282 | 0.9 | 2.6 | 0.00 | 0.00 | 0.00 | 24 | 1007.9 |
| 20260508110018 | 75 | 261 | 0.0 | 2.6 | 0.00 | 0.00 | 0.00 | 24 | 1007.9 |
| 20260508105517 | 75 | 260 | 0.0 | 2.6 | 0.00 | 0.00 | 0.00 | 24 | 1007.9 |
| 20260508105016 | 75 | 240 | 0.0 | 2.6 | 0.00 | 0.00 | 0.00 | 23 | 1007.9 |
| 20260508104516 | 75 | 216 | 0.0 | 1.7 | 0.00 | 0.00 | 0.00 | 23 | 1008.0 |
| 20260508104014 | 76 | 196 | 0.0 | 1.7 | 0.00 | 0.00 | 0.00 | 22 | 1008.0 |
| 20260508103513 | 76 | 223 | 0.0 | 1.7 | 0.00 | 0.00 | 0.00 | 21 | 1007.9 |
| 20260508103011 | 76 | 234 | 0.0 | 1.7 | 0.00 | 0.00 | 0.00 | 21 | 1007.9 |
| 20260508102511 | 77 | 234 | 0.0 | 1.7 | 0.00 | 0.00 | 0.00 | 21 | 1007.9 |
| 20260508102011 | 77 | 242 | 0.0 | 1.7 | 0.00 | 0.00 | 0.00 | 23 | 1007.9 |
| 20260508101514 | 78 | 263 | 0.0 | 1.7 | 0.00 | 0.00 | 0.00 | 20 | 1007.9 |
| 20260508101008 | 78 | 247 | 0.0 | 1.7 | 0.00 | 0.00 | 0.00 | 20 | 1008.0 |
| 20260508100506 | 78 | 191 | 0.0 | 1.7 | 0.00 | 0.00 | 0.00 | 19 | 1008.0 |
| 20260508100007 | 79 | 199 | 0.0 | 1.7 | 0.00 | 0.00 | 0.00 | 18 | 1008.0 |
| 20260508095504 | 79 | 199 | 0.0 | 1.7 | 0.00 | 0.00 | 0.00 | 18 | 1007.9 |
| 20260508095004 | 79 | 286 | 0.0 | 2.6 | 0.00 | 0.00 | 0.00 | 19 | 1007.9 |
| 20260508094511 | 79 | 248 | 0.9 | 5.2 | 0.00 | 0.00 | 0.00 | 18 | 1007.9 |
| 20260508094004 | 79 | 246 | 0.0 | 5.2 | 0.00 | 0.00 | 0.00 | 18 | 1007.8 |
| 20260508093504 | 79 | 248 | 0.9 | 5.2 | 0.00 | 0.00 | 0.00 | 18 | 1007.8 |
| 20260508093004 | 80 | 290 | 0.0 | 5.2 | 0.00 | 0.00 | 0.00 | 17 | 1007.8 |
| 20260508092507 | 80 | 286 | 0.0 | 7.0 | 0.00 | 0.00 | 0.00 | 17 | 1007.7 |
| 20260508092003 | 79 | 289 | 2.6 | 7.0 | 0.00 | 0.00 | 0.00 | 17 | 1007.7 |
| 20260508091503 | 79 | 243 | 0.9 | 7.8 | 0.00 | 0.00 | 0.00 | 17 | 1007.7 |
| 20260508091002 | 79 | 257 | 0.9 | 7.8 | 0.00 | 0.00 | 0.00 | 17 | 1007.7 |
| 20260508090503 | 79 | 265 | 2.6 | 6.1 | 0.00 | 0.00 | 0.00 | 17 | 1007.7 |
| 20260508090003 | 79 | 240 | 0.9 | 6.1 | 0.00 | 0.00 | 0.00 | 17 | 1007.7 |
| 20260508085503 | 79 | 259 | 2.6 | 5.2 | 0.00 | 0.00 | 0.00 | 17 | 1007.7 |
| 20260508085002 | 79 | 284 | 2.6 | 5.2 | 0.00 | 0.00 | 0.00 | 17 | 1007.8 |
| 20260508084501 | 79 | 271 | 1.7 | 5.2 | 0.00 | 0.00 | 0.00 | 17 | 1007.8 |
| 20260508084002 | 79 | 289 | 2.6 | 5.2 | 0.00 | 0.00 | 0.00 | 17 | 1007.7 |
| 20260508083500 | 79 | 272 | 2.6 | 4.3 | 0.00 | 0.00 | 0.00 | 17 | 1007.8 |
| 20260508083059 | 79 | 293 | 0.9 | 3.5 | 0.00 | 0.00 | 0.00 | 17 | 1007.8 |
| 20260508082559 | 79 | 258 | 0.9 | 2.6 | 0.00 | 0.00 | 0.00 | 18 | 1007.8 |
| 20260508082059 | 80 | 235 | 0.9 | 2.6 | 0.00 | 0.00 | 0.00 | 18 | 1007.8 |
| 20260508081609 | 80 | 252 | 0.0 | 2.6 | 0.00 | 0.00 | 0.00 | 18 | 1007.9 |
| 20260508081059 | 80 | 234 | 0.9 | 2.6 | 0.00 | 0.00 | 0.00 | 18 | 1007.8 |
| 20260508080556 | 80 | 232 | 0.0 | 2.6 | 0.00 | 0.00 | 0.00 | 18 | 1007.8 |
| 20260508080057 | 80 | 245 | 0.0 | 3.5 | 0.00 | 0.00 | 0.00 | 18 | 1007.8 |
| 20260508075559 | 81 | 219 | 0.0 | 3.5 | 0.00 | 0.00 | 0.00 | 18 | 1007.9 |
| 20260508075054 | 81 | 198 | 0.0 | 1.7 | 0.00 | 0.00 | 0.00 | 18 | 1007.8 |
| 20260508074553 | 81 | 252 | 0.0 | 1.7 | 0.00 | 0.00 | 0.00 | 18 | 1007.9 |
| 20260508074053 | 81 | 170 | 0.0 | 2.6 | 0.00 | 0.00 | 0.00 | 17 | 1007.9 |
| 20260508073552 | 81 | 206 | 0.0 | 4.3 | 0.00 | 0.00 | 0.00 | 17 | 1007.9 |
| 20260508073100 | 82 | 194 | 0.9 | 4.3 | 0.00 | 0.00 | 0.00 | 17 | 1007.8 |
| 20260508072550 | 82 | 200 | 0.0 | 1.7 | 0.00 | 0.00 | 0.00 | 17 | 1007.8 |
| 20260508072050 | 82 | 218 | 0.0 | 3.5 | 0.00 | 0.00 | 0.00 | 17 | 1007.8 |
| 20260508071602 | 83 | 202 | 0.0 | 3.5 | 0.00 | 0.00 | 0.00 | 17 | 1007.8 |
| 20260508071049 | 83 | 288 | 0.0 | 7.0 | 0.00 | 0.00 | 0.00 | 17 | 1007.8 |
| 20260508070548 | 83 | 186 | 1.7 | 7.8 | 0.00 | 0.00 | 0.00 | 17 | 1007.8 |
| 20260508070057 | 83 | 227 | 4.3 | 7.8 | 0.00 | 0.00 | 0.00 | 17 | 1007.8 |
| 20260508065548 | 83 | 169 | 0.9 | 5.2 | 0.00 | 0.00 | 0.00 | 18 | 1007.7 |
| 20260508065045 | 83 | 234 | 0.9 | 5.2 | 0.00 | 0.00 | 0.00 | 17 | 1007.7 |
| 20260508064545 | 83 | 281 | 1.7 | 5.2 | 0.00 | 0.00 | 0.00 | 17 | 1007.7 |
| 20260508064047 | 83 | 221 | 0.9 | 5.2 | 0.00 | 0.00 | 0.00 | 17 | 1007.7 |
| 20260508063544 | 83 | 273 | 0.9 | 5.2 | 0.00 | 0.00 | 0.00 | 17 | 1007.8 |
| 20260508063044 | 83 | 242 | 0.9 | 5.2 | 0.00 | 0.00 | 0.00 | 18 | 1007.8 |
| 20260508062544 | 84 | 266 | 0.9 | 5.2 | 0.00 | 0.00 | 0.00 | 17 | 1007.8 |
| 20260508062044 | 84 | 259 | 0.9 | 4.3 | 0.00 | 0.00 | 0.00 | 17 | 1007.8 |
| 20260508061545 | 84 | 245 | 0.9 | 4.3 | 0.00 | 0.00 | 0.00 | 17 | 1007.8 |
| 20260508061041 | 84 | 240 | 1.7 | 4.3 | 0.00 | 0.00 | 0.00 | 17 | 1007.9 |
| 20260508060540 | 84 | 262 | 1.7 | 6.1 | 0.00 | 0.00 | 0.00 | 17 | 1007.9 |
| 20260508060042 | 85 | 283 | 2.6 | 7.8 | 0.00 | 0.00 | 0.00 | 17 | 1007.9 |
| 20260508055541 | 85 | 263 | 2.6 | 7.8 | 0.00 | 0.00 | 0.00 | 17 | 1007.9 |
| 20260508055038 | 85 | 227 | 0.9 | 5.2 | 0.00 | 0.00 | 0.00 | 17 | 1007.9 |
| 20260508054545 | 85 | 224 | 0.9 | 5.2 | 0.00 | 0.00 | 0.00 | 17 | 1007.9 |
| 20260508054037 | 85 | 237 | 0.0 | 6.1 | 0.00 | 0.00 | 0.00 | 17 | 1007.9 |
| 20260508053539 | 85 | 271 | 2.6 | 7.8 | 0.00 | 0.00 | 0.00 | 17 | 1007.9 |
| 20260508053041 | 85 | 228 | 3.5 | 8.7 | 0.00 | 0.00 | 0.00 | 17 | 1007.9 |
| 20260508052536 | 85 | 262 | 3.5 | 10.4 | 0.00 | 0.00 | 0.00 | 17 | 1007.9 |
| 20260508052035 | 85 | 261 | 2.6 | 6.1 | 0.00 | 0.00 | 0.00 | 17 | 1007.8 |
| 20260508051539 | 86 | 257 | 0.9 | 7.0 | 0.00 | 0.00 | 0.00 | 17 | 1007.8 |
| 20260508051034 | 86 | 254 | 1.7 | 7.8 | 0.00 | 0.00 | 0.00 | 16 | 1007.8 |
| 20260508050535 | 86 | 266 | 3.5 | 7.8 | 0.00 | 0.00 | 0.00 | 16 | 1007.8 |
| 20260508050033 | 86 | 284 | 3.5 | 9.6 | 0.00 | 0.00 | 0.00 | 15 | 1007.8 |
| 20260508045533 | 86 | 278 | 5.2 | 7.8 | 0.00 | 0.00 | 0.00 | 14 | 1007.8 |
| 20260508045033 | 86 | 246 | 2.6 | 7.8 | 0.00 | 0.00 | 0.00 | 13 | 1007.8 |
| 20260508044533 | 86 | 282 | 1.7 | 7.0 | 0.00 | 0.00 | 0.00 | 12 | 1007.7 |
| 20260508044033 | 86 | 281 | 1.7 | 4.3 | 0.00 | 0.00 | 0.00 | 12 | 1007.7 |
| 20260508043529 | 87 | 267 | 1.7 | 5.2 | 0.00 | 0.00 | 0.00 | 12 | 1007.7 |
| 20260508043028 | 87 | 203 | 0.9 | 5.2 | 0.00 | 0.00 | 0.00 | 11 | 1007.7 |
| 20260508042528 | 87 | 225 | 1.7 | 7.8 | 0.00 | 0.00 | 0.00 | 11 | 1007.6 |
| 20260508042027 | 88 | 279 | 3.5 | 7.8 | 0.00 | 0.00 | 0.00 | 11 | 1007.6 |
| 20260508041527 | 87 | 282 | 2.6 | 8.7 | 0.00 | 0.00 | 0.00 | 12 | 1007.5 |
| 20260508041027 | 88 | 294 | 4.3 | 8.7 | 0.00 | 0.00 | 0.00 | 11 | 1007.5 |
| 20260508040527 | 88 | 321 | 3.5 | 7.0 | 0.00 | 0.00 | 0.00 | 11 | 1007.4 |
| 20260508040030 | 88 | 318 | 3.5 | 6.1 | 0.00 | 0.00 | 0.00 | 11 | 1007.4 |
| 20260508035527 | 88 | 275 | 2.6 | 7.0 | 0.00 | 0.00 | 0.00 | 11 | 1007.3 |
| 20260508035026 | 88 | 241 | 2.6 | 7.0 | 0.00 | 0.00 | 0.00 | 12 | 1007.3 |
| 20260508034530 | 88 | 280 | 3.5 | 6.1 | 0.00 | 0.00 | 0.00 | 11 | 1007.2 |
| 20260508034025 | 88 | 283 | 1.7 | 6.1 | 0.00 | 0.00 | 0.00 | 11 | 1007.1 |
| 20260508033525 | 88 | 271 | 1.7 | 7.8 | 0.00 | 0.00 | 0.00 | 11 | 1007.0 |
| 20260508033026 | 88 | 269 | 4.3 | 7.8 | 0.00 | 0.00 | 0.00 | 11 | 1007.0 |
| 20260508032525 | 87 | 310 | 1.7 | 6.1 | 0.00 | 0.00 | 0.00 | 11 | 1006.9 |
| 20260508032025 | 88 | 272 | 2.6 | 7.8 | 0.00 | 0.00 | 0.00 | 11 | 1006.9 |
| 20260508031525 | 88 | 265 | 2.6 | 6.1 | 0.00 | 0.00 | 0.00 | 11 | 1006.8 |
| 20260508031025 | 88 | 281 | 1.7 | 7.0 | 0.00 | 0.00 | 0.00 | 11 | 1006.7 |
| 20260508030525 | 87 | 263 | 3.5 | 7.0 | 0.00 | 0.00 | 0.00 | 11 | 1006.7 |
| 20260508030027 | 88 | 251 | 1.7 | 7.8 | 0.00 | 0.00 | 0.00 | 11 | 1006.6 |
| 20260508025528 | 87 | 281 | 2.6 | 7.0 | 0.00 | 0.00 | 0.00 | 11 | 1006.5 |
| 20260508025024 | 87 | 278 | 1.7 | 5.2 | 0.00 | 0.00 | 0.00 | 11 | 1006.5 |
| 20260508024527 | 87 | 280 | 2.6 | 5.2 | 0.00 | 0.00 | 0.00 | 11 | 1006.4 |
| 20260508024024 | 88 | 286 | 0.9 | 3.5 | 0.00 | 0.00 | 0.00 | 11 | 1006.3 |
| 20260508023523 | 88 | 281 | 1.7 | 3.5 | 0.00 | 0.00 | 0.00 | 11 | 1006.3 |
| 20260508023022 | 88 | 242 | 0.9 | 4.3 | 0.00 | 0.00 | 0.00 | 11 | 1006.2 |
| 20260508022523 | 88 | 233 | 0.0 | 5.2 | 0.00 | 0.00 | 0.00 | 11 | 1006.2 |
| 20260508022020 | 88 | 202 | 0.9 | 5.2 | 0.00 | 0.00 | 0.00 | 11 | 1006.2 |
| 20260508021522 | 89 | 233 | 0.9 | 6.1 | 0.00 | 0.00 | 0.00 | 11 | 1006.2 |
| 20260508021018 | 89 | 248 | 1.7 | 6.1 | 0.00 | 0.00 | 0.00 | 10 | 1006.2 |
| 20260508020517 | 89 | 201 | 2.6 | 6.1 | 0.00 | 0.00 | 0.00 | 10 | 1006.2 |
| 20260508020017 | 90 | 214 | 0.9 | 4.3 | 0.00 | 0.00 | 0.00 | 10 | 1006.1 |
| 20260508015515 | 90 | 234 | 1.7 | 4.3 | 0.00 | 0.00 | 0.00 | 10 | 1006.1 |
| 20260508015015 | 90 | 214 | 1.7 | 4.3 | 0.00 | 0.00 | 0.00 | 10 | 1006.0 |
| 20260508014521 | 91 | 222 | 0.9 | 5.2 | 0.00 | 0.00 | 0.00 | 10 | 1006.0 |
| 20260508014015 | 91 | 219 | 0.9 | 6.1 | 0.00 | 0.00 | 0.00 | 10 | 1006.0 |
| 20260508013514 | 92 | 240 | 0.9 | 6.1 | 0.00 | 0.00 | 0.00 | 10 | 1006.0 |
| 20260508013014 | 92 | 265 | 0.9 | 5.2 | 0.00 | 0.00 | 0.00 | 9 | 1005.9 |
| 20260508012514 | 93 | 261 | 0.9 | 5.2 | 0.00 | 0.00 | 0.00 | 9 | 1005.9 |
| 20260508012015 | 93 | 165 | 0.9 | 6.1 | 0.00 | 0.00 | 0.00 | 9 | 1005.9 |
| 20260508011515 | 93 | 274 | 2.6 | 7.0 | 0.00 | 0.00 | 0.00 | 9 | 1005.9 |
| 20260508011014 | 93 | 336 | 0.9 | 7.0 | 0.00 | 0.00 | 0.00 | 9 | 1005.8 |
| 20260508010514 | 93 | 244 | 1.7 | 7.0 | 0.00 | 0.00 | 0.00 | 10 | 1005.8 |
| 20260508010013 | 93 | 192 | 1.7 | 7.0 | 0.00 | 0.00 | 0.00 | 10 | 1005.9 |
| 20260508005512 | 94 | 243 | 2.6 | 7.0 | 0.00 | 0.00 | 0.00 | 9 | 1005.9 |
| 20260508005013 | 94 | 207 | 1.7 | 6.1 | 0.00 | 0.00 | 0.00 | 9 | 1005.8 |
| 20260508004513 | 95 | 284 | 2.6 | 5.2 | 0.00 | 0.00 | 0.00 | 9 | 1005.7 |
| 20260508004013 | 94 | 156 | 0.9 | 6.1 | 0.00 | 0.00 | 0.00 | 10 | 1005.7 |
| 20260508003514 | 94 | 199 | 1.7 | 7.0 | 0.00 | 0.00 | 0.00 | 10 | 1005.7 |
| 20260508003012 | 95 | 223 | 2.6 | 7.0 | 0.00 | 0.00 | 0.00 | 10 | 1005.8 |
| 20260508002511 | 95 | 220 | 1.7 | 9.6 | 0.00 | 0.00 | 0.00 | 9 | 1005.8 |
| 20260508002011 | 95 | 248 | 2.6 | 9.6 | 0.00 | 0.00 | 0.00 | 9 | 1005.8 |
| 20260508001529 | 95 | 267 | 1.7 | 5.2 | 0.00 | 0.00 | 0.00 | 10 | 1005.8 |
| 20260508001012 | 95 | 169 | 1.7 | 7.0 | 0.00 | 0.00 | 0.00 | 10 | 1005.8 |
| 20260508000511 | 95 | 242 | 0.9 | 7.0 | 0.00 | 0.00 | 0.00 | 9 | 1005.8 |
| 20260508000009 | 95 | 271 | 3.5 | 7.0 | 0.00 | 0.00 | 0.00 | 9 | 1005.9 |
| 20260507235510 | 95 | 286 | 0.9 | 10.4 | 0.00 | 0.00 | 0.00 | 10 | 1005.9 |
| 20260507235007 | 95 | 222 | 4.3 | 10.4 | 0.00 | 0.00 | 0.00 | 10 | 1006.0 |
| 20260507234509 | 95 | 260 | 0.9 | 9.6 | 0.00 | 0.00 | 0.00 | 10 | 1006.0 |